GW3984 Weather Reports


Display with metric or nautical units.
time (UTC)temp
F
wind
direction
speed
MPH
gust
MPH
rain 1hr
in
rain 24hr
in
rain mn
in
humidity
%
barometer
mb
20260510104937 69 187 0.0 2.0 0.00 0.00 0.00 86 1011.3
20260510104519 68 191 0.0 3.0 0.00 0.00 0.00 86 1012.0
20260510103944 68 188 0.0 2.0 0.00 0.00 0.00 88 1011.4
20260510103019 67 152 0.0 2.0 0.00 0.00 0.00 89 1012.0
20260510102943 68 150 0.0 1.0 0.00 0.00 0.00 89 1011.4
20260510101949 66 93 0.0 1.0 0.00 0.00 0.00 91 1011.6
20260510101514 65 107 0.0 0.0 0.00 0.00 0.00 90 1012.3
20260510100026 65 107 0.0 0.0 0.00 0.00 0.00 90 1012.3
20260510095844 66 104 0.0 0.0 0.00 0.00 0.00 90 1011.7
20260510094855 66 104 0.0 0.0 0.00 0.00 0.00 90 1011.8
20260510094528 66 107 0.0 0.0 0.00 0.00 0.00 89 1012.4
20260510093840 66 104 0.0 0.0 0.00 0.00 0.00 89 1011.8
20260510093042 66 107 0.0 0.0 0.00 0.00 0.00 89 1012.4
20260510092830 67 104 0.0 0.0 0.00 0.00 0.00 90 1011.7
20260510091824 67 104 0.0 0.0 0.00 0.00 0.00 89 1011.6
20260510091528 66 107 0.0 0.0 0.00 0.00 0.00 88 1012.2
20260510090845 67 104 0.0 0.0 0.00 0.00 0.00 89 1011.5
20260510090038 67 107 0.0 0.0 0.00 0.00 0.00 88 1012.1
20260510085852 67 104 0.0 0.0 0.00 0.00 0.00 88 1011.6
20260510084908 68 104 0.0 0.0 0.00 0.00 0.00 87 1011.6
20260510084529 68 107 0.0 0.0 0.00 0.00 0.00 86 1012.1
20260510083856 69 104 0.0 0.0 0.00 0.00 0.00 86 1011.5
20260510083020 69 107 0.0 2.0 0.00 0.00 0.00 84 1012.0
20260510082857 70 104 0.0 0.0 0.00 0.00 0.00 85 1011.4
20260510081518 69 91 0.0 2.0 0.00 0.00 0.00 83 1011.9
20260510080740 70 89 0.0 0.0 0.00 0.00 0.00 84 1011.3
20260510080016 70 93 0.0 2.0 0.00 0.00 0.00 82 1011.9
20260510075724 71 89 0.0 1.0 0.00 0.00 0.00 82 1011.2
20260510074744 72 103 0.0 1.0 0.00 0.00 0.00 81 1011.3
20260510074512 72 105 0.0 1.0 0.00 0.00 0.00 80 1012.0
20260510073010 72 123 0.0 2.0 0.00 0.00 0.00 79 1012.0
20260510072608 73 139 0.0 0.0 0.00 0.00 0.00 79 1011.3
20260510071539 73 108 0.0 1.0 0.00 0.00 0.00 79 1011.3
20260510071507 73 111 0.0 2.0 0.00 0.00 0.00 78 1012.0
20260510070542 73 164 0.0 0.0 0.00 0.00 0.00 78 1011.3
20260510070007 73 114 0.0 2.0 0.00 0.00 0.00 77 1011.9
20260510064530 74 175 0.0 4.0 0.00 0.00 0.00 76 1012.0
20260510064343 74 175 0.0 3.0 0.00 0.00 0.00 77 1011.4
20260510063319 74 107 0.0 4.0 0.00 0.00 0.00 77 1011.3
20260510063022 74 177 0.0 5.0 0.00 0.00 0.00 76 1011.9
20260510062301 74 124 0.0 1.0 0.00 0.00 0.00 77 1011.3
20260510061522 74 180 0.0 3.0 0.00 0.00 0.00 76 1012.1
20260510060146 74 126 0.0 0.0 0.00 0.00 0.00 77 1011.6
20260510060020 74 169 0.0 3.0 0.00 0.00 0.00 77 1012.2
20260510055146 74 119 0.0 0.0 0.00 0.00 0.00 78 1011.5
20260510054520 74 150 0.0 3.0 0.00 0.00 0.00 78 1012.0
20260510054209 74 72 0.0 1.0 0.00 0.00 0.00 79 1011.3
20260510053220 73 136 0.0 0.0 0.00 0.00 0.00 81 1011.3
20260510053012 73 125 0.0 2.0 0.00 0.00 0.00 80 1011.9
20260510052212 73 127 0.0 0.0 0.00 0.00 0.00 80 1011.2
20260510051510 73 129 0.0 0.0 0.00 0.00 0.00 80 1011.9
20260510051219 73 127 0.0 0.0 0.00 0.00 0.00 80 1011.2
20260510050235 73 105 0.0 0.0 0.00 0.00 0.00 81 1011.1
20260510050006 73 109 0.0 2.0 0.00 0.00 0.00 82 1011.8
20260510044533 71 109 0.0 2.0 0.00 0.00 0.00 84 1011.7
20260510044117 71 105 0.0 1.0 0.00 0.00 0.00 85 1011.0
20260510043113 70 130 0.0 0.0 0.00 0.00 0.00 85 1011.0
20260510043026 70 132 0.0 0.0 0.00 0.00 0.00 85 1011.8
20260510042051 70 130 0.0 0.0 0.00 0.00 0.00 85 1010.9
20260510041530 70 132 0.0 0.0 0.00 0.00 0.00 84 1011.6
20260510040022 70 132 0.0 0.0 0.00 0.00 0.00 83 1011.4
20260510035924 71 130 0.0 0.0 0.00 0.00 0.00 84 1010.7
20260510034911 71 130 0.0 0.0 0.00 0.00 0.00 83 1010.7
20260510034516 71 132 0.0 0.0 0.00 0.00 0.00 82 1011.4
20260510033903 72 130 0.0 0.0 0.00 0.00 0.00 82 1010.6
20260510033012 72 132 0.0 0.0 0.00 0.00 0.00 81 1011.2
20260510032920 72 130 0.0 0.0 0.00 0.00 0.00 81 1010.5
20260510031930 73 130 0.0 0.0 0.00 0.00 0.00 81 1010.4
20260510031514 72 132 0.0 0.0 0.00 0.00 0.00 80 1011.1
20260510030937 73 130 0.0 0.0 0.00 0.00 0.00 80 1010.4
20260510030008 73 132 0.0 0.0 0.00 0.00 0.00 78 1011.0
20260510025914 74 130 0.0 0.0 0.00 0.00 0.00 78 1010.3
20260510024850 75 130 0.0 0.0 0.00 0.00 0.00 77 1010.2
20260510024526 75 132 0.0 0.0 0.00 0.00 0.00 75 1010.9
20260510023906 75 130 0.0 0.0 0.00 0.00 0.00 75 1010.2
20260510023022 76 132 0.0 2.0 0.00 0.00 0.00 73 1010.8
20260510022915 76 130 0.0 0.0 0.00 0.00 0.00 73 1010.0
20260510021841 77 131 0.0 1.0 0.00 0.00 0.00 72 1010.0
20260510021528 77 134 0.0 2.0 0.00 0.00 0.00 71 1010.7
20260510020834 77 148 0.0 0.0 0.00 0.00 0.00 71 1009.8
20260510020026 78 128 0.0 2.0 0.00 0.00 0.00 69 1010.4
20260510015851 78 125 0.0 1.0 0.00 0.00 0.00 70 1009.7
20260510014908 78 110 0.0 1.0 0.00 0.00 0.00 69 1009.6
20260510014518 78 118 0.0 4.0 0.00 0.00 0.00 68 1010.3
20260510013920 79 119 0.0 1.0 0.00 0.00 0.00 69 1009.4
20260510013017 79 132 0.0 3.0 0.00 0.00 0.00 68 1009.9
20260510011815 80 139 0.0 2.0 0.00 0.00 0.00 66 1009.1
20260510011515 79 156 1.0 4.0 0.00 0.00 0.00 65 1009.8
20260510010806 80 148 0.0 0.0 0.00 0.00 0.00 65 1008.9
20260510010012 80 161 2.0 4.0 0.00 0.00 0.00 63 1009.7
20260510005748 80 146 0.0 1.0 0.00 0.00 0.00 63 1008.7
20260510004753 80 123 0.0 1.0 0.00 0.00 0.00 62 1008.6
20260510004528 80 142 0.0 2.0 0.00 0.00 0.00 61 1009.3
20260510003743 81 129 0.0 0.0 0.00 0.00 0.00 66 1008.6
20260510003026 81 186 0.0 2.0 0.00 0.00 0.00 66 1009.3
20260510002734 82 146 0.0 1.0 0.00 0.00 0.00 68 1008.4
20260510001706 81 113 0.0 1.0 0.00 0.00 0.00 73 1008.2
20260510001526 80 110 0.0 2.0 0.00 0.00 0.00 73 1009.2
20260510000707 81 91 0.0 0.0 0.00 0.00 0.00 71 1008.2
20260510000022 81 94 0.0 0.0 0.00 0.00 0.00 69 1009.0
20260509235713 81 91 0.0 0.0 0.00 0.00 0.00 70 1008.1
20260509234640 83 91 0.0 1.0 0.00 0.00 0.00 64 1007.9
20260509234521 83 94 0.0 2.0 0.00 0.00 0.00 63 1008.7
20260509233624 83 121 0.0 0.0 0.00 0.00 0.00 63 1008.0
20260509233024 83 114 0.0 4.0 0.00 0.00 0.00 63 1009.0
20260509232615 84 140 0.0 4.0 0.00 0.00 0.00 62 1008.1
20260509231606 85 124 0.0 3.0 0.00 0.00 0.00 61 1008.2
20260509231516 84 117 0.0 2.0 0.00 0.00 0.00 61 1009.1
20260509230538 85 229 0.0 0.0 0.00 0.00 0.00 62 1008.2
20260509230017 86 306 0.0 3.0 0.00 0.00 0.00 61 1009.0
20260509224513 86 65 0.0 2.0 0.00 0.00 0.00 56 1008.9
20260509224330 86 144 0.0 1.0 0.00 0.00 0.00 57 1008.1
20260509223314 87 60 0.0 0.0 0.00 0.00 0.00 58 1008.1
20260509223014 86 134 0.0 2.0 0.00 0.00 0.00 54 1009.0
20260509222251 87 113 0.0 1.0 0.00 0.00 0.00 56 1008.1
20260509221511 87 130 0.0 3.0 0.00 0.00 0.00 54 1008.9
20260509221309 88 217 0.0 0.0 0.00 0.00 0.00 54 1008.0
20260509220324 91 273 0.0 0.0 0.00 0.00 0.00 49 1008.0
20260509220031 90 275 1.0 4.0 0.00 0.00 0.00 48 1008.9
20260509215255 89 304 0.0 3.0 0.00 0.00 0.00 53 1008.1
20260509214523 90 214 1.0 4.0 0.00 0.00 0.00 52 1009.0
20260509214230 90 97 0.0 1.0 0.00 0.00 0.00 50 1008.1
20260509213213 91 59 0.0 3.0 0.00 0.00 0.00 51 1008.1
20260509213028 90 78 1.0 4.0 0.00 0.00 0.00 48 1009.0
20260509212144 90 345 0.0 2.0 0.00 0.00 0.00 53 1008.3
20260509211519 90 232 1.0 3.0 0.00 0.00 0.00 50 1009.0
20260509211147 91 295 0.0 2.0 0.00 0.00 0.00 51 1008.2
20260509210142 88 323 0.0 1.0 0.00 0.00 0.00 54 1008.4
20260509210016 88 113 0.0 2.0 0.00 0.00 0.00 54 1009.3
20260509205146 89 302 0.0 1.0 0.00 0.00 0.00 55 1008.6
20260509204530 89 298 0.0 4.0 0.00 0.00 0.00 53 1009.6
20260509204145 91 139 0.0 3.0 0.00 0.00 0.00 53 1008.9
20260509203030 90 95 1.0 4.0 0.00 0.00 0.00 50 1009.6
20260509201930 89 338 0.0 5.0 0.00 0.00 0.00 57 1009.0
20260509201512 89 54 1.0 3.0 0.00 0.00 0.00 54 1009.8
20260509200026 87 115 2.0 4.0 0.00 0.00 0.00 60 1010.1
20260509195806 87 77 0.0 1.0 0.00 0.00 0.00 59 1009.5
20260509194826 87 191 0.0 2.0 0.00 0.00 0.00 60 1009.6
20260509194527 87 148 0.0 3.0 0.00 0.00 0.00 57 1010.4
20260509193756 90 315 0.0 2.0 0.00 0.00 0.00 55 1009.8
20260509193029 89 305 1.0 2.0 0.00 0.00 0.00 60 1010.7
20260509191539 90 298 0.0 3.0 0.00 0.00 0.00 57 1010.1
20260509191522 90 306 1.0 3.0 0.00 0.00 0.00 56 1011.0
20260509190535 89 113 0.0 4.0 0.00 0.00 0.00 58 1010.3
20260509190022 90 219 0.0 6.0 0.00 0.00 0.00 59 1011.0
20260509185502 90 116 0.0 4.0 0.00 0.00 0.00 60 1010.3
20260509184527 90 130 0.0 3.0 0.00 0.00 0.00 56 1011.1
20260509184452 91 143 0.0 2.0 0.00 0.00 0.00 56 1010.3
20260509183516 90 314 0.0 2.0 0.00 0.00 0.00 57 1010.4
20260509183016 88 267 0.0 3.0 0.00 0.00 0.00 58 1011.2
20260509181515 86 298 0.0 3.0 0.00 0.00 0.00 60 1011.6
20260509181354 87 200 0.0 5.0 0.00 0.00 0.00 60 1010.9
20260509180344 89 197 0.0 5.0 0.00 0.00 0.00 57 1010.9
20260509180026 88 95 1.0 7.0 0.00 0.00 0.00 60 1011.6
20260509175358 88 274 0.0 3.0 0.00 0.00 0.00 60 1011.0
20260509174526 88 275 1.0 4.0 0.00 0.00 0.00 59 1011.8
20260509174344 88 324 0.0 2.0 0.00 0.00 0.00 61 1011.2
20260509173343 87 193 0.0 3.0 0.00 0.00 0.00 65 1011.2
20260509173025 87 199 1.0 3.0 0.00 0.00 0.00 63 1011.9
20260509172332 86 200 0.0 3.0 0.00 0.00 0.00 66 1011.2
20260509171524 85 280 2.0 4.0 0.00 0.00 0.00 64 1011.9
20260509170301 86 105 0.0 1.0 0.00 0.00 0.00 66 1011.3
20260509170022 87 290 0.0 2.0 0.00 0.00 0.00 67 1012.0
20260509165255 86 294 0.0 2.0 0.00 0.00 0.00 71 1011.3
20260509164519 84 284 1.0 3.0 0.00 0.00 0.00 67 1012.2
20260509164247 85 283 0.0 2.0 0.00 0.00 0.00 70 1011.4
20260509163235 85 288 0.0 2.0 0.00 0.00 0.00 71 1011.5
20260509163020 84 324 0.0 3.0 0.00 0.00 0.00 73 1012.3
20260509162226 82 45 0.0 1.0 0.00 0.00 0.00 74 1011.7
20260509161517 83 275 0.0 3.0 0.00 0.00 0.00 73 1012.3
20260509161155 81 0 0.0 4.0 0.00 0.00 0.00 79 1011.7
20260509160138 81 307 0.0 4.0 0.00 0.00 0.00 82 1011.5
20260509160012 79 294 1.0 6.0 0.00 0.00 0.00 80 1012.2
20260509155153 81 78 0.0 3.0 0.00 0.00 0.00 78 1011.5
20260509154525 80 296 0.0 6.0 0.00 0.00 0.00 80 1012.2
20260509154204 80 323 0.0 4.0 0.00 0.00 0.00 82 1011.4
20260509153207 78 135 0.0 4.0 0.00 0.00 0.00 87 1011.5
20260509153024 76 155 1.0 6.0 0.00 0.00 0.00 89 1012.3
20260509152206 75 187 1.0 3.0 0.00 0.00 0.00 91 1011.9
20260509151526 74 89 2.0 3.0 0.00 0.00 0.00 92 1012.3
20260509151211 74 119 0.0 1.0 0.00 0.00 0.00 93 1011.8
20260509150150 73 127 0.0 1.0 0.00 0.00 0.00 93 1012.1
20260509150024 73 294 0.0 2.0 0.00 0.00 0.00 93 1012.8
20260509145130 73 129 0.0 1.0 0.00 0.00 0.00 94 1012.1
20260509144503 72 112 1.0 2.0 0.00 0.00 0.00 94 1013.0
20260509144120 73 120 0.0 2.0 0.00 0.00 0.00 94 1012.2
20260509143125 72 147 0.0 1.0 0.00 0.00 0.00 94 1012.2
20260509143010 72 128 1.0 3.0 0.00 0.00 0.00 94 1013.0
20260509142132 72 131 0.0 2.0 0.00 0.00 0.00 94 1012.3
20260509141510 72 121 0.0 2.0 0.00 0.00 0.00 94 1012.7
20260509141132 73 138 0.0 0.0 0.00 0.00 0.00 95 1011.7
20260509140142 73 288 0.0 0.0 0.00 0.00 0.00 95 1011.1
20260509140006 72 284 0.0 0.0 0.00 0.00 0.00 94 1011.7
20260509135110 72 288 0.0 0.0 0.00 0.00 0.00 95 1011.1
20260509134517 71 284 0.0 1.0 0.00 0.00 0.00 95 1011.9
20260509134122 72 288 0.0 0.0 0.00 0.00 0.00 95 1011.2
20260509133116 72 280 0.0 0.0 0.00 0.00 0.00 95 1011.3
20260509133013 71 148 0.0 2.0 0.00 0.00 0.00 95 1012.0
20260509132117 72 148 0.0 0.0 0.00 0.00 0.00 95 1011.5
20260509131509 71 148 0.0 2.0 0.00 0.00 0.00 95 1012.1
20260509131100 72 147 0.0 0.0 0.00 0.00 0.00 95 1011.3
20260509130105 72 148 0.0 1.0 0.00 0.00 0.00 95 1011.4
20260509130008 71 135 1.0 2.0 0.00 0.00 0.00 95 1012.0
20260509125051 72 203 0.0 0.0 0.00 0.00 0.00 95 1011.2
20260509124504 71 136 0.0 2.0 0.00 0.00 0.00 95 1011.8
20260509123012 71 194 0.0 2.0 0.00 0.00 0.00 95 1012.1
20260509122859 72 195 0.0 1.0 0.00 0.00 0.00 95 1011.5
20260509121826 72 119 0.0 0.0 0.00 0.00 0.00 95 1011.3
20260509121512 71 168 0.0 2.0 0.00 0.00 0.00 95 1011.9
20260509120802 72 157 0.0 1.0 0.00 0.00 0.00 95 1011.4
20260509120021 71 177 0.0 2.0 0.00 0.00 0.00 95 1011.9
20260509115821 72 232 0.0 1.0 0.00 0.00 0.00 95 1011.2
20260509114833 72 305 0.0 1.0 0.00 0.00 0.00 95 1011.5
20260509114513 71 238 0.0 2.0 0.00 0.00 0.00 95 1012.2
20260509113809 72 300 0.0 1.0 0.00 0.00 0.00 95 1011.5
20260509113012 71 306 0.0 2.0 0.00 0.00 0.00 95 1012.0
20260509112743 72 318 0.0 0.0 0.00 0.00 0.00 95 1011.3
20260509111746 72 42 0.0 0.0 0.00 0.00 0.00 95 1011.0
20260509111512 71 51 0.0 2.0 0.00 0.00 0.00 95 1011.6
20260509110018 71 26 0.0 0.0 0.00 0.00 0.00 95 1011.3
20260509105636 72 19 0.0 0.0 0.00 0.00 0.00 95 1010.6